Overview Statistics Trail Chart Weather Telemetry Raw packets
 

This is the latest recevied weather packets stored in our database for station/object KA1JKB. If no packets are shown the sender has not sent any weather packets the latest 10 day(s).

<< 70 71 72 73 74 75 76 >>
Time Temp. Humidity Pressure Rain* Wind** Luminosity Snow
1787930968 22.78° C 62% 1019.5 hPa 0 mm - 791 W/m² -
1787930667 22.78° C 62% 1019.7 hPa 0 mm - 764 W/m² -
1787930362 22.78° C 63% 1019.7 hPa 0 mm - 747 W/m² -
1787930057 22.78° C 64% 1019.6 hPa 0 mm - 749 W/m² -
1787929755 22.22° C 64% 1019.4 hPa 0 mm - 735 W/m² -
1787929450 22.22° C 65% 1019.5 hPa 0 mm - 694 W/m² -
1787929148 21.67° C 64% 1019.7 hPa 0 mm - 718 W/m² -
1787928843 21.67° C 65% 1019.6 hPa 0 mm - 673 W/m² -
1787928542 22.22° C 67% 1019.8 hPa 0 mm - 143 W/m² -
1787928242 22.22° C 69% 1019.4 hPa 0 mm - 658 W/m² -
1787927940 21.11° C 70% 1019.6 hPa 0 mm - 656 W/m² -
1787927635 21.11° C 69% 1019.5 hPa 0 mm - 611 W/m² -
1787927330 21.11° C 72% 1019.5 hPa 0 mm - 573 W/m² -
1787927026 20.56° C 73% 1019.6 hPa 0 mm - 553 W/m² -
1787926726 20.56° C 75% 1019.6 hPa 0 mm - 560 W/m² -
1787926424 20° C 74% 1019.6 hPa 0 mm - 538 W/m² -
1787926119 20° C 74% 1019.4 hPa 0 mm - 516 W/m² -
1787925819 19.44° C 77% 1019.4 hPa 0 mm - 497 W/m² -
1787925518 19.44° C 76% 1019.5 hPa 0 mm - 504 W/m² -
1787925213 19.44° C 75% 1019.4 hPa 0 mm - 506 W/m² -
1787924912 20° C 75% 1019.5 hPa 0 mm - 511 W/m² -
1787924607 19.44° C 75% 1019.5 hPa 0 mm - 508 W/m² -
1787924302 19.44° C 76% 1019.6 hPa 0 mm - 478 W/m² -
1787923997 19.44° C 77% 1019.5 hPa 0 mm - 409 W/m² -
1787923697 18.89° C 77% 1019.3 hPa 0 mm - 397 W/m² -

* Rain latest hour (hover to see other rain measurements)
** Current wind speed in m/s (hover to see current wind gust speed)